GFSSGP_500_rhum_108.txt.gz
RH
22 21 20 20 20 18 18 15 10 6 10 9 14 22 39 37 34 26 21 17 13 12 11 13 12 10 7 5 5 7 9 8 7 6 5 3 7 14 24 33 35 21 25 39 57 62 32 26 29
13 14 16 14 14 16 22 20 10 7 6 11 29 38 33 35 31 24 19 16 15 13 12 13 12 10 8 6 6 7 9 9 8 6 5 5 9 17 19 30 44 51 56 62 74 88 67 43 34
12 11 10 7 6 8 16 23 13 12 11 18 27 41 35 33 24 26 22 17 16 15 14 11 13 11 9 7 6 7 10 10 8 6 6 5 7 6 15 26 46 49 47 74 90 79 95 93 36
14 13 12 9 6 8 14 27 17 15 21 25 21 34 31 30 25 32 24 18 19 17 16 12 13 11 10 8 6 7 9 10 7 6 6 5 4 3 12 18 25 33 40 47 41 72 96 97 89
20 16 14 10 8 10 11 26 23 22 26 23 20 16 19 15 24 28 25 21 19 18 15 14 14 11 11 9 8 8 9 9 8 6 6 5 5 3 11 20 30 39 50 71 80 69 94 93 95
24 22 13 7 9 16 14 21 32 24 38 39 32 26 19 18 20 25 25 24 21 19 18 15 16 11 10 10 9 9 9 10 10 7 6 6 4 3 8 26 44 52 56 60 54 50 49 60 95
25 25 11 8 7 12 19 28 28 32 29 33 35 32 26 21 23 28 31 39 21 19 18 16 18 12 11 12 10 10 12 11 10 7 7 7 6 4 6 24 45 42 50 55 52 52 54 53 61
21 17 7 7 9 8 24 35 32 32 32 34 34 28 25 24 22 26 34 27 23 21 22 17 19 15 10 14 13 11 12 12 11 9 7 7 8 7 6 12 39 58 75 75 82 82 73 86 69
15 8 4 5 12 14 27 32 41 38 33 35 36 34 34 33 29 27 28 25 27 25 21 18 18 16 12 13 14 14 12 13 12 11 10 10 9 9 7 10 21 53 66 64 59 50 53 44 53
8 6 5 6 13 18 22 29 50 48 39 32 38 40 41 40 31 31 27 26 31 30 25 17 19 17 14 12 14 16 15 13 14 14 11 12 12 10 10 8 15 36 55 76 59 61 42 33 32
7 6 7 6 8 12 11 13 41 63 42 38 40 41 39 51 32 33 29 26 34 32 26 23 21 22 18 13 14 17 17 14 14 14 14 14 15 12 12 11 6 15 36 46 65 59 46 52 57
7 9 7 6 7 8 6 12 16 73 44 47 50 50 44 42 27 32 33 29 28 36 34 27 24 23 23 17 15 17 19 18 17 17 14 14 14 15 14 14 7 5 23 29 39 46 50 60 61
7 7 6 6 5 5 5 5 12 41 53 61 60 58 45 38 31 36 36 32 29 39 40 31 27 24 25 20 18 19 20 20 18 19 18 14 14 16 17 16 12 6 7 26 24 27 33 56 61
6 6 6 5 5 5 5 4 13 5 52 77 67 59 48 44 33 34 34 35 34 41 48 41 31 26 26 25 23 23 21 21 20 20 20 16 16 17 21 17 20 8 5 6 21 23 33 38 52
5 5 5 5 4 5 5 5 4 4 47 82 85 74 63 56 45 37 38 37 41 46 41 50 41 29 27 30 28 26 25 24 23 21 21 21 17 19 21 22 19 18 7 6 6 10 30 40 46
4 4 4 4 4 4 5 4 4 4 16 65 97 84 76 64 60 46 45 44 37 46 41 39 52 38 31 33 31 29 28 26 25 24 23 24 20 21 22 25 22 21 14 7 7 7 12 44 66
3 4 4 3 4 4 5 5 3 4 6 24 95 98 88 80 73 56 53 52 42 59 51 36 41 50 39 33 32 31 31 29 27 25 24 25 22 21 22 25 27 22 20 8 7 7 8 17 74
16 24 12 6 3 3 4 4 3 4 4 6 44 98 99 90 69 71 69 73 63 50 61 47 34 47 45 37 32 32 34 30 30 27 24 25 25 23 23 23 27 27 25 11 6 8 7 21 79
100 57 28 10 4 3 3 3 3 3 4 4 6 51 97 93 83 89 84 85 74 56 63 53 42 38 44 39 37 36 35 34 30 25 24 28 28 26 26 23 25 29 30 14 7 7 8 15 60
32 89 76 21 5 2 3 3 2 2 3 4 4 8 50 99 100 99 99 99 89 63 59 60 47 41 39 37 36 36 38 33 30 28 32 32 31 28 28 25 26 28 33 17 6 6 10 19 37
29 83 95 41 12 6 74 46 13 3 3 4 4 6 42 91 100 96 95 82 74 62 55 58 46 45 36 30 28 29 32 34 33 36 42 37 30 28 29 27 30 31 35 21 7 8 10 35 51
16 40 88 99 60 26 53 60 53 34 11 16 6 22 91 93 96 91 80 73 70 62 57 52 51 47 37 28 44 32 31 31 32 31 34 37 33 33 31 31 34 33 37 24 7 7 10 19 52
99 99 90 54 21 96 67 96 56 100 49 64 60 88 100 92 92 82 69 71 61 58 58 57 54 49 40 42 77 63 56 40 33 25 28 37 38 37 31 32 37 37 40 27 8 7 10 19 59
42 34 80 42 24 56 38 55 59 100 79 68 72 99 97 94 72 67 80 71 52 50 54 57 56 53 49 53 46 69 81 50 42 31 26 33 35 38 31 32 36 30 38 30 8 7 10 49 86
54 78 99 91 66 36 74 86 62 93 100 64 38 67 65 52 88 76 71 82 69 55 57 57 57 60 56 54 50 43 59 50 45 39 33 32 34 36 33 30 35 25 35 32 9 7 11 68 97
74 97 79 100 98 85 100 78 56 84 98 90 64 62 85 84 50 50 86 89 90 77 62 64 76 70 58 52 55 48 41 53 32 31 26 31 35 35 33 35 34 23 34 33 10 7 19 93 97
71 80 100 100 100 93 95 53 59 48 64 99 97 93 98 98 100 100 100 100 92 76 83 90 81 76 71 71 57 45 48 54 50 49 51 26 36 39 37 38 32 27 31 35 12 8 12 66 97
57 90 98 100 99 100 100 100 97 95 70 96 98 94 98 96 98 98 96 98 100 96 95 88 80 82 71 65 59 54 55 65 74 61 66 30 36 40 35 39 36 34 29 37 15 7 10 34 95
65 79 80 66 70 97 100 97 98 99 97 95 100 74 89 74 90 96 97 98 100 90 78 75 72 78 83 86 78 74 79 72 65 76 74 51 57 44 37 51 44 42 33 39 21 7 10 12 52
97 49 73 96 99 100 100 100 100 100 99 95 93 98 100 100 97 88 87 80 67 58 72 72 71 75 79 86 88 94 89 72 71 77 77 94 96 77 45 48 52 51 53 44 30 10 9 10 44

GFSSGP_500_rhum_111.txt.gz
RH
8 9 13 18 16 10 12 20 22 18 12 12 8 7 14 17 24 22 20 25 28 21 18 16 14 11 11 8 8 8 6 7 8 8 7 6 5 5 10 16 19 34 47 54 57 65 77 83 79
10 10 8 7 6 5 8 19 25 22 16 11 8 7 7 21 40 36 32 29 31 27 22 18 16 13 13 10 9 8 7 7 8 8 8 6 5 6 9 9 15 23 31 40 49 72 88 90 91
13 13 12 8 5 5 9 21 25 23 21 10 10 10 8 9 21 29 30 36 36 30 24 19 18 15 15 11 10 10 8 7 8 8 6 6 5 6 4 6 11 22 26 33 43 58 60 65 97
16 14 13 9 8 8 13 19 22 24 23 14 13 13 13 11 11 14 26 27 32 34 26 19 18 17 14 13 12 11 9 8 8 7 6 5 5 4 4 6 14 31 32 40 56 49 70 92 92
17 13 11 5 5 8 17 23 28 28 23 20 19 19 18 18 17 16 16 23 30 32 26 22 21 19 16 14 14 12 9 8 7 7 7 6 6 5 3 6 24 35 44 51 61 53 51 53 70
14 14 9 7 7 10 16 28 30 30 26 25 22 20 20 19 18 18 21 22 25 24 22 24 22 20 17 16 16 13 11 9 8 8 8 6 7 6 4 6 18 40 47 38 44 49 44 42 47
9 9 6 6 6 8 13 31 34 32 30 28 24 16 15 20 25 22 19 21 24 26 38 25 22 20 18 17 16 15 14 11 9 10 10 7 7 7 7 6 9 25 43 48 52 65 66 50 45
7 6 6 5 5 4 10 36 35 38 30 32 28 18 17 22 28 29 29 26 20 24 27 26 26 21 19 17 17 16 15 13 11 12 12 11 9 8 8 8 9 20 48 63 59 49 57 74 65
8 8 9 7 6 6 9 27 44 45 37 33 35 26 20 22 24 26 28 30 29 24 25 28 25 21 19 19 18 16 15 15 14 14 13 12 13 12 10 10 10 13 32 50 52 48 36 44 38
13 13 11 9 8 7 6 6 29 45 39 38 35 34 26 22 22 25 29 32 32 32 29 30 30 24 20 19 18 16 15 17 18 16 14 13 14 13 15 12 13 9 12 31 38 47 59 57 32
18 16 14 13 11 10 9 7 9 34 17 39 44 39 33 25 25 26 33 32 30 34 31 34 30 30 22 23 20 18 16 16 18 19 17 14 14 13 14 16 14 14 7 8 23 36 54 50 49
18 18 16 15 12 12 11 9 7 9 6 41 52 49 43 34 24 27 36 39 30 33 31 40 30 34 28 26 24 21 18 18 19 20 20 18 16 14 16 17 17 16 12 5 11 24 27 38 44
15 17 14 14 14 11 9 8 8 8 7 34 54 60 50 43 33 30 33 33 32 34 32 42 45 42 33 27 28 22 19 19 20 21 22 20 20 17 17 19 18 17 17 12 5 10 20 17 24
11 10 12 12 11 10 9 10 7 7 7 9 54 70 60 48 42 38 35 32 35 38 36 42 55 49 37 31 30 27 23 22 21 22 23 23 22 22 19 20 19 19 19 18 10 5 5 11 18
8 8 8 10 9 8 7 10 9 7 7 6 10 68 80 57 48 39 45 43 46 43 40 49 61 55 52 33 33 33 27 26 25 24 25 25 24 24 22 21 21 20 20 20 19 9 5 5 6
4 3 4 5 4 5 6 6 8 6 6 6 6 15 92 81 58 51 50 51 47 48 42 54 60 57 55 48 35 37 35 30 28 28 27 26 25 26 25 22 22 22 22 25 23 17 7 5 5
2 2 3 2 2 4 6 5 5 5 5 5 5 5 59 96 83 58 54 59 58 52 48 56 60 62 55 58 48 38 38 33 32 31 29 28 26 27 26 24 22 22 22 26 28 25 13 6 5
4 7 11 8 3 7 6 9 5 4 5 5 5 5 19 96 82 70 64 68 72 63 58 63 67 66 57 60 51 46 40 37 35 36 34 29 28 27 27 26 24 23 24 24 30 31 18 6 6
44 79 54 43 40 31 18 17 11 5 4 4 5 5 5 94 86 100 99 86 89 70 64 64 70 59 61 56 53 48 45 47 43 39 37 32 28 26 30 29 26 24 25 23 30 34 21 8 7
39 58 57 59 53 100 60 42 20 10 5 4 4 5 5 28 100 100 92 87 77 62 63 58 53 68 63 59 56 50 44 45 42 38 37 34 28 33 34 30 28 26 26 23 28 35 25 9 7
48 77 82 98 43 89 96 100 23 12 7 4 4 4 5 5 86 98 96 87 71 64 58 57 50 56 61 60 48 51 44 40 44 43 41 39 36 36 34 31 31 28 28 27 28 34 30 13 6
44 87 72 25 61 95 100 74 10 6 5 4 4 4 4 5 10 99 99 86 74 58 55 56 58 56 62 60 51 50 54 41 38 35 33 34 36 38 39 36 35 31 28 28 25 30 33 20 6
46 62 73 74 81 96 100 66 73 92 36 18 4 4 5 5 5 17 50 80 70 66 79 73 70 65 63 66 59 52 62 80 47 42 38 43 34 38 43 42 40 35 29 27 19 23 32 22 6
76 61 52 59 52 56 56 32 89 89 99 65 25 3 4 6 6 9 38 66 46 52 56 64 75 78 69 70 62 54 57 88 96 66 70 49 42 45 47 47 46 39 31 30 22 23 31 24 6
43 47 96 100 60 24 60 80 100 98 98 100 90 36 14 16 19 13 14 47 56 52 66 76 75 77 77 72 81 81 74 68 53 95 78 54 53 50 48 47 46 40 33 30 24 22 32 26 7
63 79 100 99 100 98 92 90 80 81 100 98 91 77 59 40 41 33 23 48 58 77 71 59 50 58 73 66 72 84 72 73 64 64 97 80 49 45 42 41 42 38 35 32 29 23 33 28 8
78 100 99 100 100 100 100 100 77 60 82 96 86 63 60 84 59 77 69 49 43 57 53 63 58 67 63 65 71 77 75 66 60 56 74 86 70 34 40 39 40 40 40 35 31 22 33 30 9
93 98 100 100 100 99 100 100 100 100 75 97 99 80 56 67 76 97 95 98 94 87 72 60 56 60 62 65 86 79 86 73 64 77 60 73 80 74 71 68 38 42 43 37 30 20 30 30 15
59 62 85 99 95 93 100 100 100 100 100 100 99 98 88 71 73 68 59 76 96 100 100 90 84 94 85 84 79 76 71 70 92 90 76 83 92 87 89 94 65 37 45 41 35 25 25 27 22
99 58 51 73 95 100 100 100 100 100 94 100 97 97 98 98 99 99 98 99 99 78 94 98 95 85 84 90 82 77 73 77 69 65 80 86 96 97 95 96 70 43 48 47 44 36 22 30 23

GFSSGP_500_rhum_114.txt.gz
RH
8 10 10 7 7 5 9 19 22 22 21 22 19 16 12 10 10 9 13 15 22 29 27 25 23 20 17 13 10 9 7 6 6 6 7 7 7 6 5 8 7 9 17 25 31 41 61 72 92
10 10 10 10 8 7 8 15 23 15 11 16 19 18 14 12 14 11 8 8 15 21 24 21 23 21 18 14 12 10 8 6 6 6 6 6 6 6 6 6 4 8 21 22 27 39 49 68 56
16 15 14 12 9 9 13 21 22 16 11 12 15 17 17 14 14 13 11 9 11 17 23 24 24 21 19 16 13 11 9 8 7 6 6 6 5 5 4 4 5 9 28 28 32 48 54 58 68
18 18 17 11 8 9 17 22 25 22 20 16 14 17 16 16 15 14 14 13 13 16 18 26 25 22 21 19 15 12 11 9 9 6 6 7 7 5 5 4 4 14 30 40 34 47 58 60 70
16 13 11 6 6 11 18 26 26 27 26 23 18 18 12 14 17 24 24 20 19 22 24 32 29 23 21 20 16 13 12 10 10 7 8 8 8 5 6 4 4 12 26 34 33 45 50 46 46
11 11 9 7 9 10 14 28 32 29 30 27 22 19 17 18 19 21 26 29 27 23 30 29 26 26 25 23 18 13 13 13 12 9 9 9 8 7 6 5 5 8 15 30 42 52 57 60 48
10 8 6 6 6 6 7 29 36 37 33 33 25 19 21 22 21 23 23 23 23 23 23 26 29 37 29 22 19 14 12 14 13 11 10 9 9 9 7 6 6 7 10 31 53 44 48 56 67
16 12 8 8 8 8 8 13 25 31 34 36 31 21 23 24 22 22 24 28 29 28 25 24 28 30 27 24 19 16 14 15 14 13 11 10 10 11 12 10 7 6 8 24 26 37 39 44 45
24 17 15 14 13 12 9 8 9 12 8 29 36 28 27 27 26 25 26 26 29 32 29 29 26 30 30 26 20 18 17 16 15 15 14 12 12 12 13 12 11 8 7 8 15 26 31 50 52
34 24 22 24 21 18 16 12 10 8 8 10 36 38 25 29 30 30 30 33 33 37 33 32 32 32 34 30 21 18 18 16 15 15 16 15 14 15 14 13 12 12 9 14 5 8 20 46 58
42 36 34 31 27 26 22 17 14 12 10 10 24 49 31 30 30 32 32 34 41 41 40 32 37 40 35 33 27 22 20 21 20 18 18 17 17 17 16 14 14 12 12 10 8 4 8 21 44
44 37 34 32 29 26 23 22 20 17 12 13 15 32 41 22 33 32 32 35 38 50 49 33 42 40 37 36 35 30 24 22 22 19 20 19 19 18 18 16 16 15 13 15 12 9 4 10 21
33 29 29 27 24 23 21 20 20 17 15 11 8 17 44 26 29 36 34 35 40 43 50 35 39 41 43 45 40 37 30 26 24 20 21 21 22 21 21 19 18 16 16 17 16 13 10 4 7
26 24 26 26 24 23 21 20 19 14 13 12 10 8 27 51 34 39 40 39 40 50 43 39 37 42 46 52 45 38 36 30 27 25 23 23 23 23 23 22 21 18 20 21 19 16 15 12 5
10 14 14 15 12 12 11 16 17 17 16 15 11 9 8 34 50 37 46 45 46 48 52 47 38 40 48 55 51 43 39 35 31 28 26 25 26 25 25 24 22 21 20 21 20 20 18 16 13
8 7 6 5 4 4 4 5 7 9 10 12 12 8 8 9 29 39 47 51 55 54 54 53 42 39 53 59 54 53 46 40 34 33 31 28 29 27 26 26 26 22 22 20 19 20 18 20 20
2 2 2 3 2 2 3 3 2 3 4 5 8 9 7 7 22 29 50 61 66 61 57 54 46 42 56 60 54 53 55 47 36 32 34 34 32 30 28 26 27 25 22 23 22 18 20 22 22
2 2 2 2 2 4 5 5 4 2 2 3 4 6 7 6 7 40 76 75 75 72 60 61 52 51 58 58 58 53 53 55 48 40 38 37 35 33 31 27 27 28 25 24 23 19 19 25 23
2 4 11 12 25 21 6 17 15 13 4 3 3 4 6 6 6 42 98 86 76 69 50 55 57 57 57 58 64 58 50 58 54 49 42 40 39 37 34 29 28 31 28 26 26 23 22 28 27
12 17 22 38 30 43 36 34 65 41 22 16 7 4 5 6 6 12 100 95 77 65 57 59 61 59 62 66 64 61 59 53 57 54 47 43 42 41 38 29 30 34 32 27 27 26 24 30 29
21 26 37 30 32 37 42 21 30 40 72 35 27 13 8 7 7 8 100 100 81 67 74 66 94 71 67 76 70 68 67 57 51 56 52 49 48 43 38 32 32 37 35 30 29 28 23 30 32
50 39 33 32 48 59 62 34 50 77 49 23 36 28 13 7 7 6 65 83 74 70 78 80 93 70 71 69 68 73 74 67 64 56 58 61 57 44 40 38 36 38 40 37 34 30 24 26 31
52 40 46 42 46 50 90 86 56 85 89 94 99 28 19 8 8 6 17 93 86 71 79 85 88 78 65 63 69 77 73 93 89 64 59 50 48 38 48 43 40 42 43 40 39 35 27 27 30
35 37 49 89 100 46 26 38 59 100 100 100 100 80 46 21 8 7 6 37 89 89 79 79 90 86 49 66 73 78 75 81 94 90 92 82 46 60 63 55 45 46 48 44 43 38 29 24 30
38 60 63 78 93 99 75 68 93 96 100 100 100 81 49 41 12 6 6 9 30 95 85 80 86 81 86 84 86 83 86 82 96 94 100 98 89 67 64 61 42 47 53 45 40 47 38 23 26
59 70 96 98 100 100 100 100 100 78 76 90 98 100 82 60 36 19 5 5 9 11 39 74 90 95 94 91 86 84 94 96 96 85 72 78 95 98 89 59 48 46 47 38 33 35 29 26 21
72 88 89 95 100 97 100 100 100 92 72 78 81 86 94 91 67 39 29 12 5 5 6 13 48 62 76 63 78 84 99 96 97 96 87 84 75 94 93 84 69 47 44 37 32 30 31 28 19
91 72 80 83 98 100 97 100 100 100 99 99 99 98 93 71 71 54 44 39 34 18 14 22 31 44 58 71 85 83 83 94 94 97 92 96 91 90 89 94 80 67 50 56 48 32 33 27 22
98 84 79 63 87 100 99 100 100 100 100 100 100 100 96 81 58 50 48 53 43 46 37 48 65 84 86 83 77 72 73 88 97 96 97 94 75 66 62 74 73 74 79 79 78 66 33 30 25
72 84 95 52 87 100 100 100 100 100 100 100 100 100 100 100 61 76 85 90 58 54 36 29 47 67 64 67 55 66 85 85 82 92 95 99 94 69 71 72 74 72 82 96 95 82 43 39 34

GFSSGP_500_rhum_117.txt.gz
RH
7 7 7 6 7 8 7 13 18 22 16 15 15 15 16 16 16 14 17 16 12 9 10 13 13 14 15 14 14 13 9 8 7 6 4 5 5 5 5 4 5 5 7 14 22 27 36 44 64
9 10 10 10 9 8 10 16 21 21 16 11 11 12 14 16 14 14 15 15 14 11 10 12 13 17 20 16 16 16 11 9 8 6 6 5 5 5 4 4 4 4 7 21 26 34 44 51 62
14 16 16 14 12 14 16 18 19 20 19 17 15 14 16 16 14 14 15 16 14 14 13 15 16 16 22 18 18 18 14 11 9 7 6 5 5 6 6 5 4 4 8 25 34 36 42 56 57
22 20 15 10 10 15 20 23 25 24 22 21 21 18 17 17 17 15 16 17 16 17 19 19 22 23 29 24 20 18 16 12 10 8 7 6 6 6 6 5 4 4 9 23 35 35 41 43 46
22 20 16 10 12 14 19 23 28 27 24 22 18 20 18 19 17 16 16 17 18 22 27 25 26 28 32 24 20 21 18 15 11 9 8 7 6 6 7 5 5 4 7 14 32 40 40 50 50
15 14 12 11 11 9 10 17 21 25 25 24 18 18 21 21 20 20 20 21 23 24 31 32 26 30 31 27 27 30 21 17 14 11 9 8 7 6 7 7 6 5 6 10 24 45 34 42 61
17 14 12 11 10 11 12 13 11 13 19 28 18 14 22 24 25 24 24 26 27 28 33 33 28 29 32 29 28 30 21 18 17 14 10 10 8 7 7 7 8 7 12 8 20 24 30 32 37
23 20 16 18 20 16 16 13 12 10 9 14 15 9 14 24 25 27 29 28 30 30 32 31 32 31 33 31 30 26 21 18 16 16 13 12 11 8 7 6 8 8 8 7 7 9 20 24 36
31 21 21 31 33 28 24 20 16 13 12 9 14 9 8 15 23 25 28 30 30 31 33 34 33 34 32 33 31 27 23 19 16 16 15 15 14 11 8 7 8 9 9 8 14 6 6 15 31
34 27 33 36 35 32 34 36 30 26 22 17 10 14 9 9 20 25 28 29 30 34 38 39 33 33 33 37 34 33 26 21 17 17 17 17 16 14 11 9 9 10 9 9 8 7 4 6 17
48 45 49 46 46 44 41 39 40 35 30 23 18 11 12 10 17 23 27 32 34 35 36 43 41 35 33 42 41 39 30 25 20 20 21 19 19 18 15 11 9 11 11 10 11 9 8 4 8
42 40 38 36 35 33 37 37 33 30 29 23 20 16 12 12 14 26 26 32 36 37 40 42 40 36 33 40 44 42 37 30 25 22 22 20 20 21 18 15 13 11 11 12 11 10 10 9 4
44 39 36 33 31 30 28 26 25 23 25 24 19 19 16 12 13 16 29 33 35 36 41 48 49 42 34 44 44 43 42 36 31 27 24 21 21 22 22 19 16 14 12 12 12 11 12 11 11
36 34 32 28 19 16 16 18 17 17 17 19 20 18 18 14 13 12 20 29 38 40 39 50 57 48 34 39 45 47 48 44 37 31 28 24 23 23 24 22 20 18 14 13 13 12 12 13 14
22 28 22 17 18 13 10 17 14 12 10 12 13 15 16 15 13 12 10 25 36 44 59 45 49 51 38 41 43 48 52 47 39 36 32 28 25 25 25 26 24 22 19 16 15 14 12 15 14
20 17 19 14 12 6 4 8 6 7 8 8 9 9 10 12 11 13 10 10 36 46 50 49 45 51 44 42 44 47 53 51 44 40 36 34 30 28 28 28 26 24 23 20 18 18 15 14 15
7 8 6 6 3 2 2 2 3 2 2 2 3 3 5 7 9 9 11 9 16 39 57 53 47 49 56 43 47 48 51 55 54 48 38 37 35 32 31 30 29 26 25 23 20 19 19 15 14
2 2 2 2 4 4 4 4 2 2 3 2 3 3 2 3 7 8 9 9 9 22 59 64 57 56 62 47 50 51 51 52 55 56 48 43 40 37 33 33 33 29 27 26 24 21 20 18 12
3 4 4 2 5 3 3 6 8 8 4 11 5 3 2 2 2 6 8 9 10 20 42 51 54 58 61 52 48 57 57 54 53 58 57 52 46 41 37 36 37 33 29 27 28 25 22 21 15
12 10 8 5 9 20 18 11 32 40 47 19 17 6 4 2 1 2 7 8 10 21 34 57 53 55 54 58 49 61 69 63 55 54 56 56 50 45 41 43 40 36 31 27 32 31 28 26 20
15 11 6 11 18 28 15 11 34 38 25 26 28 29 15 6 2 2 3 8 14 33 34 68 65 52 56 54 58 73 73 75 66 63 58 60 59 52 50 48 43 39 34 29 34 37 32 32 27
22 11 27 49 56 66 49 25 19 46 71 60 75 89 70 28 16 6 9 8 9 77 63 79 90 81 80 67 72 76 86 91 94 91 90 72 62 58 52 48 47 43 40 33 37 41 36 34 33
23 26 40 44 85 89 98 50 45 81 99 100 100 100 85 42 46 28 12 8 8 55 99 98 100 99 90 94 94 80 97 98 97 96 95 94 78 68 57 48 50 54 50 43 44 47 42 36 36
23 29 37 39 65 89 100 99 76 81 64 90 100 96 79 92 78 78 19 10 8 19 100 100 100 100 100 95 96 73 89 97 97 96 96 95 86 86 72 59 71 59 52 51 47 43 43 42 40
35 26 35 32 57 91 99 95 91 80 100 93 100 100 98 98 100 100 38 15 16 23 100 100 99 100 100 98 100 84 84 95 100 97 95 95 98 88 87 97 90 65 49 54 42 38 36 40 42
45 41 35 34 50 64 98 100 100 100 94 75 95 100 82 88 100 100 63 17 13 65 100 100 100 99 98 99 100 89 85 82 98 96 95 93 99 88 75 95 93 69 85 62 66 51 34 37 38
51 54 38 38 40 63 98 100 100 100 100 96 93 100 100 96 76 87 69 38 13 39 98 100 100 100 100 99 96 84 85 93 94 97 92 100 96 87 91 94 98 88 83 71 62 51 42 37 35
37 54 53 69 68 68 99 95 100 100 100 100 100 100 100 96 94 60 44 45 19 9 42 85 98 100 99 95 90 79 79 74 95 90 94 97 93 94 91 95 94 98 92 88 80 79 46 40 49
46 66 76 82 77 91 95 100 100 97 98 100 100 99 100 100 99 87 56 38 22 15 13 20 32 47 92 95 97 96 86 66 86 81 88 96 98 97 97 97 92 98 98 98 96 92 86 67 67
88 83 94 96 68 92 100 100 100 100 100 100 100 100 98 100 93 100 71 47 42 23 12 15 15 16 19 27 28 23 29 45 56 60 93 83 89 95 96 97 97 96 97 96 91 82 79 89 95